Time,TemperatureF,DewpointF,PressureIn,WindDirection,WindDirectionDegrees,WindSpeedMPH,WindSpeedGustMPH,Humidity,HourlyPrecipIn,Conditions,Clouds,dailyrainin,SoftwareType,DateUTC
2013-02-25 00:00:00,30.3,24.9,29.62,WNW,295,5.1,10.4,80,0.00,RA,SCT,0.00,WeatherDisplay:10.37,2013-02-25 05:00:00,
2013-02-25 00:05:00,30.3,24.3,29.62,NW,326,5.0,9.2,78,0.00,RA,SCT,0.00,WeatherDisplay:10.37,2013-02-25 05:05:00,
2013-02-25 00:10:00,30.3,24.3,29.62,NW,307,5.0,9.2,78,0.00,CLR,SCT,0.00,WeatherDisplay:10.37,2013-02-25 05:10:00,
2013-02-25 00:15:00,30.3,24.3,29.62,NW,304,6.7,12.7,78,0.00,CLR,SCT,0.00,WeatherDisplay:10.37,2013-02-25 05:15:00,
2013-02-25 00:20:00,30.3,24.3,29.62,NW,305,2.6,4.6,78,0.00,CLR,SCT,0.00,WeatherDisplay:10.37,2013-02-25 05:20:00,
2013-02-25 00:25:00,30.2,24.2,29.63,NNE,19,6.8,9.2,78,0.00,CLR,SCT,0.00,WeatherDisplay:10.37,2013-02-25 05:25:00,
2013-02-25 00:30:00,30.2,24.2,29.63,West,267,4.9,6.9,78,0.00,CLR,SCT,0.00,WeatherDisplay:10.37,2013-02-25 05:30:00,
2013-02-25 00:35:00,30.2,24.2,29.63,WNW,300,7.6,11.5,78,0.00,CLR,SCT,0.00,WeatherDisplay:10.37,2013-02-25 05:35:00,
2013-02-25 00:40:00,30.2,24.2,29.63,NW,309,4.6,5.8,78,0.00,CLR,SCT,0.00,WeatherDisplay:10.37,2013-02-25 05:40:00,
2013-02-25 00:45:00,30.1,24.1,29.63,North,360,5.3,9.2,78,0.00,CLR,SCT,0.00,WeatherDisplay:10.37,2013-02-25 05:45:00,
2013-02-25 00:50:00,30.0,24.0,29.63,NW,321,5.5,9.2,78,0.00,CLR,SCT,0.00,WeatherDisplay:10.37,2013-02-25 05:50:00,
2013-02-25 00:55:00,29.9,24.2,29.63,NW,306,4.3,6.9,79,0.00,CLR,SCT,0.00,WeatherDisplay:10.37,2013-02-25 05:55:00,
2013-02-25 01:00:00,29.9,24.2,29.63,NW,304,6.3,9.2,79,0.00,CLR,SCT,0.00,WeatherDisplay:10.37,2013-02-25 06:00:00,
2013-02-25 01:05:00,29.9,24.5,29.63,NW,321,3.6,7.0,80,0.00,CLR,SCT,0.00,WeatherDisplay:10.37,2013-02-25 06:05:00,
2013-02-25 01:10:00,29.8,24.1,29.64,WNW,296,5.0,9.2,79,0.00,CLR,SCT,0.00,WeatherDisplay:10.37,2013-02-25 06:10:00,
2013-02-25 01:15:00,29.9,24.2,29.64,WNW,295,4.3,5.8,79,0.00,CLR,SCT,0.00,WeatherDisplay:10.37,2013-02-25 06:15:00,
2013-02-25 01:20:00,29.8,24.1,29.64,WNW,303,5.0,8.1,79,0.00,CLR,SCT,0.00,WeatherDisplay:10.37,2013-02-25 06:20:00,
2013-02-25 01:25:00,29.8,24.1,29.64,WSW,257,6.7,10.4,79,0.00,CLR,SCT,0.00,WeatherDisplay:10.37,2013-02-25 06:25:00,
2013-02-25 01:30:00,29.7,24.0,29.64,NW,306,5.1,9.2,79,0.00,CLR,SCT,0.00,WeatherDisplay:10.37,2013-02-25 06:30:00,
2013-02-25 01:35:00,29.7,24.0,29.65,NW,311,4.1,7.0,79,0.00,CLR,SCT,0.00,WeatherDisplay:10.37,2013-02-25 06:35:00,
2013-02-25 01:40:00,29.7,24.0,29.65,NW,308,6.6,10.4,79,0.00,CLR,SCT,0.00,WeatherDisplay:10.37,2013-02-25 06:40:00,
2013-02-25 01:45:00,29.7,24.0,29.65,NW,321,5.8,9.2,79,0.00,CLR,SCT,0.00,WeatherDisplay:10.37,2013-02-25 06:45:00,
2013-02-25 01:50:00,29.8,24.1,29.65,NW,304,4.4,7.0,79,0.00,CLR,SCT,0.00,WeatherDisplay:10.37,2013-02-25 06:50:00,
2013-02-25 01:55:00,29.7,24.3,29.65,West,268,3.9,8.1,80,0.00,CLR,SCT,0.00,WeatherDisplay:10.37,2013-02-25 06:55:00,
2013-02-25 02:00:00,29.6,23.9,29.65,NW,325,4.5,9.2,79,0.00,CLR,SCT,0.00,WeatherDisplay:10.37,2013-02-25 07:00:00,
2013-02-25 02:05:00,29.6,23.9,29.66,WNW,294,3.4,4.6,79,0.00,CLR,SCT,0.00,WeatherDisplay:10.37,2013-02-25 07:05:00,
2013-02-25 02:10:00,29.6,24.2,29.66,NW,325,4.0,5.0,80,0.00,CLR,SCT,0.00,WeatherDisplay:10.37,2013-02-25 07:10:00,
2013-02-25 02:15:00,29.6,24.2,29.66,WNW,301,2.5,4.6,80,0.00,CLR,SCT,0.00,WeatherDisplay:10.37,2013-02-25 07:15:00,
2013-02-25 02:20:00,29.6,23.9,29.66,NW,305,3.0,9.2,79,0.00,CLR,SCT,0.00,WeatherDisplay:10.37,2013-02-25 07:20:00,
2013-02-25 02:25:00,29.6,24.2,29.66,NNW,337,3.9,5.8,80,0.00,CLR,SCT,0.00,WeatherDisplay:10.37,2013-02-25 07:25:00,
2013-02-25 02:30:00,29.6,24.2,29.66,NNW,344,3.3,5.0,80,0.00,CLR,SCT,0.00,WeatherDisplay:10.37,2013-02-25 07:30:00,
2013-02-25 02:35:00,29.7,24.3,29.66,NNW,327,2.4,8.1,80,0.00,CLR,SCT,0.00,WeatherDisplay:10.37,2013-02-25 07:35:00,
2013-02-25 02:40:00,29.7,24.3,29.66,NW,320,4.2,6.9,80,0.00,CLR,SCT,0.00,WeatherDisplay:10.37,2013-02-25 07:40:00,
2013-02-25 02:45:00,29.8,24.4,29.66,WNW,288,4.5,8.1,80,0.00,CLR,SCT,0.00,WeatherDisplay:10.37,2013-02-25 07:45:00,
2013-02-25 02:50:00,29.8,24.4,29.66,NW,321,3.2,6.0,80,0.00,CLR,SCT,0.00,WeatherDisplay:10.37,2013-02-25 07:50:00,
2013-02-25 02:55:00,29.9,24.2,29.67,NW,315,4.4,10.4,79,0.00,CLR,SCT,0.00,WeatherDisplay:10.37,2013-02-25 07:55:00,
2013-02-25 03:00:00,29.8,24.4,29.67,NNW,340,5.0,8.0,80,0.00,CLR,SCT,0.00,WeatherDisplay:10.37,2013-02-25 08:00:00,
2013-02-25 03:05:00,29.8,24.4,29.67,NW,325,4.4,8.1,80,0.00,CLR,SCT,0.00,WeatherDisplay:10.37,2013-02-25 08:05:00,
2013-02-25 03:10:00,29.6,24.2,29.67,NW,309,5.6,8.1,80,0.00,CLR,SCT,0.00,WeatherDisplay:10.37,2013-02-25 08:10:00,
2013-02-25 03:15:00,29.6,24.2,29.67,WNW,294,4.7,5.8,80,0.00,CLR,SCT,0.00,WeatherDisplay:10.37,2013-02-25 08:15:00,
2013-02-25 03:20:00,29.6,24.5,29.67,NW,314,4.0,9.2,81,0.00,CLR,SCT,0.00,WeatherDisplay:10.37,2013-02-25 08:20:00,
2013-02-25 03:25:00,29.5,24.4,29.67,NW,312,4.5,5.0,81,0.00,CLR,SCT,0.00,WeatherDisplay:10.37,2013-02-25 08:25:00,
2013-02-25 03:30:00,29.4,24.3,29.67,NW,319,4.5,5.8,81,0.00,CLR,SCT,0.00,WeatherDisplay:10.37,2013-02-25 08:30:00,
2013-02-25 03:35:00,29.3,24.2,29.67,WNW,285,5.2,8.1,81,0.00,CLR,SCT,0.00,WeatherDisplay:10.37,2013-02-25 08:35:00,
2013-02-25 03:40:00,29.3,24.2,29.67,WNW,298,4.0,8.1,81,0.00,CLR,SCT,0.00,WeatherDisplay:10.37,2013-02-25 08:40:00,
2013-02-25 03:45:00,29.2,24.4,29.67,NW,309,3.7,4.6,82,0.00,CLR,SCT,0.00,WeatherDisplay:10.37,2013-02-25 08:45:00,
2013-02-25 03:50:00,29.1,24.3,29.67,NW,317,3.4,4.6,82,0.00,CLR,SCT,0.00,WeatherDisplay:10.37,2013-02-25 08:50:00,
2013-02-25 03:55:00,29.1,24.3,29.68,NW,318,3.2,5.8,82,0.00,CLR,SCT,0.00,WeatherDisplay:10.37,2013-02-25 08:55:00,
2013-02-25 04:00:00,28.9,24.4,29.68,NW,306,5.1,9.2,83,0.00,CLR,SCT,0.00,WeatherDisplay:10.37,2013-02-25 09:00:00,
2013-02-25 04:05:00,29.0,24.5,29.68,NW,304,4.5,8.1,83,0.00,CLR,SCT,0.00,WeatherDisplay:10.37,2013-02-25 09:05:00,
2013-02-25 04:10:00,29.0,24.2,29.68,NW,309,3.3,5.8,82,0.00,CLR,SCT,0.00,WeatherDisplay:10.37,2013-02-25 09:10:00,
2013-02-25 04:15:00,28.9,24.4,29.68,WNW,300,4.2,6.0,83,0.00,CLR,SCT,0.00,WeatherDisplay:10.37,2013-02-25 09:15:00,
2013-02-25 04:20:00,28.9,24.4,29.69,WNW,292,3.9,7.0,83,0.00,CLR,SCT,0.00,WeatherDisplay:10.37,2013-02-25 09:20:00,
2013-02-25 04:25:00,28.9,24.4,29.69,NW,313,3.9,5.8,83,0.00,CLR,SCT,0.00,WeatherDisplay:10.37,2013-02-25 09:25:00,
2013-02-25 04:30:00,28.8,24.3,29.69,WNW,301,3.5,4.6,83,0.00,CLR,SCT,0.00,WeatherDisplay:10.37,2013-02-25 09:30:00,
2013-02-25 04:35:00,28.7,24.2,29.69,WNW,303,3.2,4.6,83,0.00,CLR,SCT,0.00,WeatherDisplay:10.37,2013-02-25 09:35:00,
2013-02-25 04:40:00,28.6,24.4,29.70,WNW,301,3.1,5.0,84,0.00,CLR,SCT,0.00,WeatherDisplay:10.37,2013-02-25 09:40:00,
2013-02-25 04:45:00,28.5,24.3,29.70,NW,305,4.0,5.8,84,0.00,CLR,SCT,0.00,WeatherDisplay:10.37,2013-02-25 09:45:00,
2013-02-25 04:50:00,28.4,24.2,29.70,NW,309,3.9,6.0,84,0.00,CLR,SCT,0.00,WeatherDisplay:10.37,2013-02-25 09:50:00,
2013-02-25 04:55:00,28.4,24.5,29.70,NW,325,3.4,4.6,85,0.00,CLR,SCT,0.00,WeatherDisplay:10.37,2013-02-25 09:55:00,
2013-02-25 05:00:00,28.3,24.4,29.70,WNW,302,2.9,4.6,85,0.00,CLR,SCT,0.00,WeatherDisplay:10.37,2013-02-25 10:00:00,
2013-02-25 05:05:00,28.2,24.3,29.70,WNW,294,4.1,6.0,85,0.00,CLR,SCT,0.00,WeatherDisplay:10.37,2013-02-25 10:05:00,
2013-02-25 05:10:00,28.2,24.3,29.70,WNW,299,4.1,4.6,85,0.00,CLR,SCT,0.00,WeatherDisplay:10.37,2013-02-25 10:10:00,
2013-02-25 05:15:00,28.1,24.2,29.70,NNW,331,4.0,6.9,85,0.00,CLR,SCT,0.00,WeatherDisplay:10.37,2013-02-25 10:15:00,
2013-02-25 05:20:00,28.3,24.4,29.71,NW,311,5.0,7.0,85,0.00,CLR,SCT,0.00,WeatherDisplay:10.37,2013-02-25 10:20:00,
2013-02-25 05:25:00,28.6,24.4,29.70,NW,317,3.7,8.1,84,0.00,CLR,SCT,0.00,WeatherDisplay:10.37,2013-02-25 10:25:00,
2013-02-25 05:30:00,28.7,24.5,29.71,NW,305,4.9,10.4,84,0.00,CLR,SCT,0.00,WeatherDisplay:10.37,2013-02-25 10:30:00,
2013-02-25 05:35:00,28.6,24.4,29.71,NNW,337,3.6,6.9,84,0.00,CLR,SCT,0.00,WeatherDisplay:10.37,2013-02-25 10:35:00,
2013-02-25 05:40:00,28.5,24.3,29.71,WNW,294,3.7,4.6,84,0.00,CLR,SCT,0.00,WeatherDisplay:10.37,2013-02-25 10:40:00,
2013-02-25 05:45:00,28.6,24.7,29.71,NW,322,3.7,5.8,85,0.00,CLR,SCT,0.00,WeatherDisplay:10.37,2013-02-25 10:45:00,
2013-02-25 05:50:00,28.8,24.6,29.71,NW,321,4.8,10.4,84,0.00,CLR,SCT,0.00,WeatherDisplay:10.37,2013-02-25 10:50:00,
2013-02-25 05:55:00,28.8,24.6,29.71,NW,317,4.5,6.9,84,0.00,CLR,SCT,0.00,WeatherDisplay:10.37,2013-02-25 10:55:00,
2013-02-25 06:00:00,28.9,24.7,29.72,NW,317,3.3,4.6,84,0.00,CLR,SCT,0.00,WeatherDisplay:10.37,2013-02-25 11:00:00,
2013-02-25 06:05:00,28.8,24.6,29.72,NNW,327,4.3,5.8,84,0.00,CLR,SCT,0.00,WeatherDisplay:10.37,2013-02-25 11:05:00,
2013-02-25 06:10:00,28.9,24.7,29.72,WNW,286,5.6,6.9,84,0.00,CLR,SCT,0.00,WeatherDisplay:10.37,2013-02-25 11:10:00,
2013-02-25 06:15:00,29.0,24.8,29.72,NNW,327,3.7,5.8,84,0.00,CLR,SCT,0.00,WeatherDisplay:10.37,2013-02-25 11:15:00,
2013-02-25 06:20:00,29.0,24.5,29.72,NW,314,3.7,3.7,83,0.00,CLR,SCT,0.00,WeatherDisplay:10.37,2013-02-25 11:20:00,
2013-02-25 06:25:00,29.0,24.5,29.73,WNW,294,5.5,8.1,83,0.00,CLR,SCT,0.00,WeatherDisplay:10.37,2013-02-25 11:25:00,
2013-02-25 06:30:00,29.1,24.6,29.73,NW,321,3.3,4.6,83,0.00,CLR,SCT,0.00,WeatherDisplay:10.37,2013-02-25 11:30:00,
2013-02-25 06:35:00,28.8,24.6,29.73,NNW,330,3.1,5.8,84,0.00,CLR,SCT,0.00,WeatherDisplay:10.37,2013-02-25 11:35:00,
2013-02-25 06:40:00,28.8,24.6,29.73,NW,314,1.9,3.5,84,0.00,CLR,SCT,0.00,WeatherDisplay:10.37,2013-02-25 11:40:00,
2013-02-25 06:45:00,28.6,24.4,29.74,NW,309,3.9,4.6,84,0.00,CLR,SCT,0.00,WeatherDisplay:10.37,2013-02-25 11:45:00,
2013-02-25 06:50:00,28.6,24.7,29.74,NNW,333,3.4,3.5,85,0.00,CLR,SCT,0.00,WeatherDisplay:10.37,2013-02-25 11:50:00,
2013-02-25 06:55:00,28.5,24.6,29.74,WNW,302,1.5,3.5,85,0.00,CLR,SCT,0.00,WeatherDisplay:10.37,2013-02-25 11:55:00,
2013-02-25 07:00:00,28.7,24.8,29.74,NW,324,2.4,4.6,85,0.00,CLR,SCT,0.00,WeatherDisplay:10.37,2013-02-25 12:00:00,
2013-02-25 07:05:00,28.8,24.9,29.75,North,5,1.7,2.3,85,0.00,CLR,SCT,0.00,WeatherDisplay:10.37,2013-02-25 12:05:00,
2013-02-25 07:10:00,28.8,24.9,29.75,NW,314,2.9,6.9,85,0.00,CLR,SCT,0.00,WeatherDisplay:10.37,2013-02-25 12:10:00,
2013-02-25 07:15:00,28.9,25.0,29.75,NW,326,2.7,4.6,85,0.00,CLR,SCT,0.00,WeatherDisplay:10.37,2013-02-25 12:15:00,
2013-02-25 07:20:00,29.1,25.2,29.75,NNW,346,2.0,5.8,85,0.00,CLR,SCT,0.00,WeatherDisplay:10.37,2013-02-25 12:20:00,
2013-02-25 07:25:00,29.3,25.1,29.75,NNW,329,1.6,3.5,84,0.00,CLR,SCT,0.00,WeatherDisplay:10.37,2013-02-25 12:25:00,
2013-02-25 07:30:00,29.3,25.4,29.76,WNW,293,1.7,4.0,85,0.00,CLR,SCT,0.00,WeatherDisplay:10.37,2013-02-25 12:30:00,
2013-02-25 07:35:00,29.4,25.2,29.76,NNW,329,1.5,3.5,84,0.00,CLR,SCT,0.00,WeatherDisplay:10.37,2013-02-25 12:35:00,
2013-02-25 07:40:00,29.6,25.4,29.76,NW,315,2.0,4.6,84,0.00,CLR,SCT,0.00,WeatherDisplay:10.37,2013-02-25 12:40:00,
2013-02-25 07:45:00,29.8,25.6,29.77,NW,325,6.1,6.9,84,0.00,CLR,SCT,0.00,WeatherDisplay:10.37,2013-02-25 12:45:00,
2013-02-25 07:51:00,30.0,25.5,29.77,NNW,331,3.0,3.5,83,0.00,CLR,SCT,0.00,WeatherDisplay:10.37,2013-02-25 12:51:00,
2013-02-25 07:56:00,30.3,25.5,29.77,NW,323,3.5,5.0,82,0.00,CLR,SCT,0.00,WeatherDisplay:10.37,2013-02-25 12:56:00,
2013-02-25 08:01:00,30.4,25.6,29.77,NW,325,4.4,6.9,82,0.00,CLR,SCT,0.00,WeatherDisplay:10.37,2013-02-25 13:01:00,
2013-02-25 08:06:00,30.6,25.8,29.77,NNW,332,4.7,5.8,82,0.00,CLR,SCT,0.00,WeatherDisplay:10.37,2013-02-25 13:06:00,
2013-02-25 08:11:00,31.1,26.0,29.77,NW,325,1.9,3.5,81,0.00,CLR,SCT,0.00,WeatherDisplay:10.37,2013-02-25 13:11:00,
2013-02-25 08:16:00,31.4,25.9,29.77,WNW,298,4.9,8.1,80,0.00,CLR,SCT,0.00,WeatherDisplay:10.37,2013-02-25 13:16:00,
2013-02-25 08:21:00,31.4,25.9,29.78,NW,316,0.8,3.5,80,0.00,CLR,SCT,0.00,WeatherDisplay:10.37,2013-02-25 13:21:00,
2013-02-25 08:26:00,31.9,26.1,29.78,WNW,284,3.8,5.0,79,0.00,CLR,SCT,0.00,WeatherDisplay:10.37,2013-02-25 13:26:00,
2013-02-25 08:31:00,32.2,26.1,29.78,NNW,328,3.3,4.6,78,0.00,CLR,SCT,0.00,WeatherDisplay:10.37,2013-02-25 13:31:00,
2013-02-25 08:36:00,32.3,26.2,29.78,NNW,342,5.1,8.1,78,0.00,CLR,SCT,0.00,WeatherDisplay:10.37,2013-02-25 13:36:00,
2013-02-25 08:41:00,32.3,25.9,29.78,ENE,58,5.1,5.8,77,0.00,CLR,SCT,0.00,WeatherDisplay:10.37,2013-02-25 13:41:00,
2013-02-25 08:46:00,32.3,26.2,29.77,NW,320,4.6,8.1,78,0.00,CLR,SCT,0.00,WeatherDisplay:10.37,2013-02-25 13:46:00,
2013-02-25 08:51:00,32.5,26.4,29.77,NW,309,3.3,5.8,78,0.00,CLR,SCT,0.00,WeatherDisplay:10.37,2013-02-25 13:51:00,
2013-02-25 08:56:00,32.5,26.4,29.77,NW,326,5.0,8.1,78,0.00,CLR,SCT,0.00,WeatherDisplay:10.37,2013-02-25 13:56:00,
2013-02-25 09:01:00,32.5,26.1,29.78,West,273,6.0,8.1,77,0.00,CLR,SCT,0.00,WeatherDisplay:10.37,2013-02-25 14:01:00,
2013-02-25 09:06:00,32.7,26.6,29.78,NNE,15,4.0,5.8,78,0.00,CLR,SCT,0.00,WeatherDisplay:10.37,2013-02-25 14:06:00,
2013-02-25 09:11:00,32.8,26.4,29.78,NW,312,2.1,3.5,77,0.00,CLR,SCT,0.00,WeatherDisplay:10.37,2013-02-25 14:11:00,
2013-02-25 09:16:00,32.9,26.5,29.78,NNW,347,3.0,6.9,77,0.00,CLR,SCT,0.00,WeatherDisplay:10.37,2013-02-25 14:16:00,
2013-02-25 09:21:00,33.3,26.9,29.78,West,279,3.3,6.0,77,0.00,CLR,SCT,0.00,WeatherDisplay:10.37,2013-02-25 14:21:00,
2013-02-25 09:26:00,33.3,26.5,29.79,NW,310,3.5,5.0,76,0.00,CLR,SCT,0.00,WeatherDisplay:10.37,2013-02-25 14:26:00,
2013-02-25 09:31:00,33.7,26.6,29.79,North,355,3.8,5.8,75,0.00,CLR,SCT,0.00,WeatherDisplay:10.37,2013-02-25 14:31:00,
2013-02-25 09:36:00,33.9,26.5,29.79,WNW,297,4.6,6.0,74,0.00,CLR,SCT,0.00,WeatherDisplay:10.37,2013-02-25 14:36:00,
2013-02-25 09:41:00,34.1,26.7,29.79,NNW,346,5.0,6.0,74,0.00,CLR,SCT,0.00,WeatherDisplay:10.37,2013-02-25 14:41:00,
2013-02-25 09:46:00,34.4,26.6,29.78,North,11,5.5,6.9,73,0.00,CLR,SCT,0.00,WeatherDisplay:10.37,2013-02-25 14:46:00,
2013-02-25 09:51:00,35.0,27.2,29.79,NW,326,3.0,4.6,73,0.00,CLR,SCT,0.00,WeatherDisplay:10.37,2013-02-25 14:51:00,
2013-02-25 09:56:00,35.5,27.4,29.79,NNW,344,3.6,7.0,72,0.00,CLR,SCT,0.00,WeatherDisplay:10.37,2013-02-25 14:56:00,
2013-02-25 10:01:00,35.4,26.6,29.79,WSW,254,3.5,6.9,70,0.00,CLR,SCT,0.00,WeatherDisplay:10.37,2013-02-25 15:01:00,
2013-02-25 10:06:00,35.6,26.8,29.80,NNW,327,2.0,3.5,70,0.00,CLR,SCT,0.00,WeatherDisplay:10.37,2013-02-25 15:06:00,
2013-02-25 10:11:00,36.1,26.9,29.80,West,280,2.2,3.5,69,0.00,CLR,SCT,0.00,WeatherDisplay:10.37,2013-02-25 15:11:00,
2013-02-25 10:16:00,36.0,26.5,29.80,NW,309,2.3,3.5,68,0.00,CLR,SCT,0.00,WeatherDisplay:10.37,2013-02-25 15:16:00,
2013-02-25 10:21:00,36.2,26.6,29.80,WNW,302,3.8,5.8,68,0.00,CLR,SCT,0.00,WeatherDisplay:10.37,2013-02-25 15:21:00,
2013-02-25 10:26:00,36.4,26.8,29.79,NW,304,3.0,3.5,68,0.00,CLR,SCT,0.00,WeatherDisplay:10.37,2013-02-25 15:26:00,
2013-02-25 10:31:00,36.6,26.7,29.79,WNW,294,5.6,9.2,67,0.00,CLR,SCT,0.00,WeatherDisplay:10.37,2013-02-25 15:31:00,
2013-02-25 10:36:00,36.4,26.1,29.79,NW,315,4.0,5.8,66,0.00,CLR,SCT,0.00,WeatherDisplay:10.37,2013-02-25 15:36:00,
2013-02-25 10:41:00,36.7,26.8,29.79,NW,325,4.4,4.6,67,0.00,CLR,SCT,0.00,WeatherDisplay:10.37,2013-02-25 15:41:00,
2013-02-25 10:46:00,36.8,26.5,29.79,WNW,300,4.7,6.0,66,0.00,CLR,SCT,0.00,WeatherDisplay:10.37,2013-02-25 15:46:00,
2013-02-25 10:51:00,37.0,26.3,29.79,WNW,290,4.4,5.0,65,0.00,CLR,SCT,0.00,WeatherDisplay:10.37,2013-02-25 15:51:00,
2013-02-25 10:56:00,37.3,26.2,29.79,NW,308,4.5,5.0,64,0.00,CLR,SCT,0.00,WeatherDisplay:10.37,2013-02-25 15:56:00,
2013-02-25 11:01:00,37.2,26.1,29.78,WNW,292,1.5,3.5,64,0.00,CLR,SCT,0.00,WeatherDisplay:10.37,2013-02-25 16:01:00,
2013-02-25 11:06:00,37.9,26.8,29.79,WNW,297,4.8,8.1,64,0.00,CLR,SCT,0.00,WeatherDisplay:10.37,2013-02-25 16:06:00,
2013-02-25 11:11:00,37.8,26.7,29.80,WNW,290,2.5,4.6,64,0.00,CLR,SCT,0.00,WeatherDisplay:10.37,2013-02-25 16:11:00,
2013-02-25 11:16:00,37.9,26.8,29.79,North,355,2.8,4.6,64,0.00,CLR,SCT,0.00,WeatherDisplay:10.37,2013-02-25 16:16:00,
2013-02-25 11:22:00,38.2,27.1,29.80,NW,323,3.3,6.0,64,0.00,CLR,SCT,0.00,WeatherDisplay:10.37,2013-02-25 16:22:00,
2013-02-25 11:27:00,38.6,27.1,29.80,NNW,346,4.3,5.8,63,0.00,CLR,SCT,0.00,WeatherDisplay:10.37,2013-02-25 16:27:00,
2013-02-25 11:32:00,38.8,26.9,29.80,NW,308,3.5,6.0,62,0.00,CLR,SCT,0.00,WeatherDisplay:10.37,2013-02-25 16:32:00,
2013-02-25 11:37:00,39.0,26.7,29.80,WNW,288,3.2,5.8,61,0.00,CLR,SCT,0.00,WeatherDisplay:10.37,2013-02-25 16:37:00,
2013-02-25 11:42:00,39.2,26.9,29.80,WNW,298,1.9,4.6,61,0.00,CLR,SCT,0.00,WeatherDisplay:10.37,2013-02-25 16:42:00,
2013-02-25 11:47:00,39.5,26.8,29.80,NW,320,5.2,8.1,60,0.00,CLR,SCT,0.00,WeatherDisplay:10.37,2013-02-25 16:47:00,
2013-02-25 11:52:00,39.6,26.8,29.80,NW,304,4.0,8.1,60,0.00,CLR,SCT,0.00,WeatherDisplay:10.37,2013-02-25 16:52:00,
2013-02-25 11:57:00,39.6,26.8,29.80,NNW,340,2.0,5.8,60,0.00,CLR,SCT,0.00,WeatherDisplay:10.37,2013-02-25 16:57:00,
2013-02-25 12:02:00,39.5,26.3,29.80,North,10,5.5,6.9,59,0.00,CLR,SCT,0.00,WeatherDisplay:10.37,2013-02-25 17:02:00,
2013-02-25 12:07:00,40.0,26.8,29.80,NNW,344,1.2,4.6,59,0.00,CLR,SCT,0.00,WeatherDisplay:10.37,2013-02-25 17:07:00,
2013-02-25 12:11:00,39.7,26.9,29.80,NW,304,3.0,5.0,60,0.00,CLR,SCT,0.00,WeatherDisplay:10.37,2013-02-25 17:11:00,
2013-02-25 12:16:00,39.4,26.2,29.80,NW,311,3.0,4.6,59,0.00,CLR,SCT,0.00,WeatherDisplay:10.37,2013-02-25 17:16:00,
2013-02-25 12:21:00,39.3,26.6,29.81,WSW,257,2.7,3.5,60,0.00,CLR,SCT,0.00,WeatherDisplay:10.37,2013-02-25 17:21:00,
2013-02-25 12:26:00,39.9,27.1,29.81,WNW,291,1.5,2.3,60,0.00,CLR,SCT,0.00,WeatherDisplay:10.37,2013-02-25 17:26:00,
2013-02-25 12:31:00,40.7,27.1,29.81,WNW,300,5.2,6.9,58,0.00,CLR,SCT,0.00,WeatherDisplay:10.37,2013-02-25 17:31:00,
2013-02-25 12:36:00,40.9,26.8,29.81,NW,314,3.5,4.6,57,0.00,CLR,SCT,0.00,WeatherDisplay:10.37,2013-02-25 17:36:00,
2013-02-25 12:41:00,40.9,26.8,29.80,West,279,0.4,1.1,57,0.00,CLR,SCT,0.00,WeatherDisplay:10.37,2013-02-25 17:41:00,
2013-02-25 12:46:00,41.6,27.5,29.80,NW,309,4.4,5.0,57,0.00,CLR,SCT,0.00,WeatherDisplay:10.37,2013-02-25 17:46:00,
2013-02-25 12:51:00,40.5,26.0,29.80,WSW,249,2.7,6.9,56,0.00,CLR,SCT,0.00,WeatherDisplay:10.37,2013-02-25 17:51:00,
2013-02-25 12:56:00,40.3,27.1,29.80,NNW,347,4.5,5.8,59,0.00,CLR,SCT,0.00,WeatherDisplay:10.37,2013-02-25 17:56:00,
2013-02-25 13:01:00,40.7,27.1,29.81,NNW,338,2.6,6.0,58,0.00,CLR,SCT,0.00,WeatherDisplay:10.37,2013-02-25 18:01:00,
2013-02-25 13:06:00,40.3,25.8,29.81,WSW,246,2.2,3.5,56,0.00,CLR,SCT,0.00,WeatherDisplay:10.37,2013-02-25 18:06:00,
2013-02-25 13:11:00,40.8,26.7,29.81,NE,44,3.7,4.6,57,0.00,CLR,SCT,0.00,WeatherDisplay:10.37,2013-02-25 18:11:00,
2013-02-25 13:16:00,42.1,27.5,29.81,NNW,336,3.3,5.8,56,0.00,CLR,SCT,0.00,WeatherDisplay:10.37,2013-02-25 18:16:00,
2013-02-25 13:21:00,41.5,26.1,29.81,WNW,290,3.3,5.8,54,0.00,CLR,SCT,0.00,WeatherDisplay:10.37,2013-02-25 18:21:00,
2013-02-25 13:26:00,40.9,27.2,29.81,SW,227,0.6,2.3,58,0.00,CLR,SCT,0.00,WeatherDisplay:10.37,2013-02-25 18:26:00,
2013-02-25 13:31:00,40.9,26.4,29.81,West,259,3.2,5.0,56,0.00,CLR,SCT,0.00,WeatherDisplay:10.37,2013-02-25 18:31:00,
2013-02-25 13:36:00,41.5,27.4,29.81,WNW,286,1.8,4.6,57,0.00,CLR,SCT,0.00,WeatherDisplay:10.37,2013-02-25 18:36:00,
2013-02-25 13:41:00,40.9,26.4,29.81,West,259,2.6,5.8,56,0.00,CLR,SCT,0.00,WeatherDisplay:10.37,2013-02-25 18:41:00,
2013-02-25 13:46:00,41.3,26.8,29.81,North,351,4.2,5.8,56,0.00,CLR,SCT,0.00,WeatherDisplay:10.37,2013-02-25 18:46:00,
2013-02-25 13:51:00,42.7,26.7,29.81,WNW,300,1.2,3.5,53,0.00,CLR,SCT,0.00,WeatherDisplay:10.37,2013-02-25 18:51:00,
2013-02-25 13:56:00,43.1,26.7,29.81,NW,317,3.8,5.8,52,0.00,CLR,SCT,0.00,WeatherDisplay:10.37,2013-02-25 18:56:00,
2013-02-25 14:01:00,42.1,25.7,29.81,NW,319,5.0,6.0,52,0.00,CLR,SCT,0.00,WeatherDisplay:10.37,2013-02-25 19:01:00,
2013-02-25 14:06:00,41.7,25.8,29.81,North,5,3.1,5.0,53,0.00,CLR,SCT,0.00,WeatherDisplay:10.37,2013-02-25 19:06:00,
2013-02-25 14:11:00,41.1,26.6,29.80,NNW,329,1.9,3.5,56,0.00,CLR,SCT,0.00,WeatherDisplay:10.37,2013-02-25 19:11:00,
2013-02-25 14:16:00,41.2,27.9,29.81,NW,321,0.8,4.0,59,0.00,CLR,SCT,0.00,WeatherDisplay:10.37,2013-02-25 19:16:00,
2013-02-25 14:21:00,41.3,26.3,29.81,NNW,337,1.9,3.5,55,0.00,CLR,SCT,0.00,WeatherDisplay:10.37,2013-02-25 19:21:00,
2013-02-25 14:26:00,40.9,26.0,29.81,WNW,286,3.4,4.6,55,0.00,CLR,SCT,0.00,WeatherDisplay:10.37,2013-02-25 19:26:00,
2013-02-25 14:31:00,40.6,25.7,29.81,NW,306,2.8,5.8,55,0.00,CLR,SCT,0.00,WeatherDisplay:10.37,2013-02-25 19:31:00,
2013-02-25 14:36:00,41.2,25.8,29.81,NNW,340,0.9,4.0,54,0.00,CLR,SCT,0.00,WeatherDisplay:10.37,2013-02-25 19:36:00,
2013-02-25 14:41:00,41.6,26.2,29.81,WSW,257,0.9,2.3,54,0.00,CLR,SCT,0.00,WeatherDisplay:10.37,2013-02-25 19:41:00,
2013-02-25 14:46:00,41.8,25.9,29.81,North,349,5.1,9.2,53,0.00,CLR,SCT,0.00,WeatherDisplay:10.37,2013-02-25 19:46:00,
2013-02-25 14:51:00,41.1,25.7,29.81,NNW,331,5.0,5.0,54,0.00,CLR,SCT,0.00,WeatherDisplay:10.37,2013-02-25 19:51:00,
2013-02-25 14:56:00,40.5,25.6,29.81,NNW,340,3.9,8.1,55,0.00,CLR,SCT,0.00,WeatherDisplay:10.37,2013-02-25 19:56:00,
2013-02-25 15:01:00,40.3,25.8,29.81,NNW,329,2.3,4.0,56,0.00,CLR,SCT,0.00,WeatherDisplay:10.37,2013-02-25 20:01:00,
2013-02-25 15:06:00,40.9,26.0,29.82,North,350,0.3,1.1,55,0.00,CLR,SCT,0.00,WeatherDisplay:10.37,2013-02-25 20:06:00,
2013-02-25 15:11:00,41.3,25.9,29.82,NNE,28,5.2,10.4,54,0.00,CLR,SCT,0.00,WeatherDisplay:10.37,2013-02-25 20:11:00,
2013-02-25 15:16:00,41.5,25.6,29.82,NNE,30,3.7,6.9,53,0.00,CLR,SCT,0.00,WeatherDisplay:10.37,2013-02-25 20:16:00,
2013-02-25 15:21:00,41.1,26.1,29.82,NNW,345,4.4,5.8,55,0.00,CLR,SCT,0.00,WeatherDisplay:10.37,2013-02-25 20:21:00,
2013-02-25 15:26:00,40.2,26.2,29.82,NW,314,2.3,5.8,57,0.00,CLR,SCT,0.00,WeatherDisplay:10.37,2013-02-25 20:26:00,
2013-02-25 15:31:00,39.8,26.6,29.83,NNW,336,0.4,1.1,59,0.00,CLR,SCT,0.00,WeatherDisplay:10.37,2013-02-25 20:31:00,
2013-02-25 15:36:00,39.6,26.4,29.83,NW,313,1.7,4.6,59,0.00,CLR,SCT,0.00,WeatherDisplay:10.37,2013-02-25 20:36:00,
2013-02-25 15:41:00,39.4,26.2,29.83,NNW,337,2.8,4.6,59,0.00,CLR,SCT,0.00,WeatherDisplay:10.37,2013-02-25 20:41:00,
2013-02-25 15:46:00,39.3,26.2,29.83,NNW,334,2.1,4.0,59,0.00,CLR,SCT,0.00,WeatherDisplay:10.37,2013-02-25 20:46:00,
2013-02-25 15:51:00,39.2,25.6,29.83,NNW,336,2.0,4.6,58,0.00,CLR,SCT,0.00,WeatherDisplay:10.37,2013-02-25 20:51:00,
2013-02-25 15:56:00,39.2,26.5,29.83,NW,309,2.9,4.6,60,0.00,CLR,SCT,0.00,WeatherDisplay:10.37,2013-02-25 20:56:00,
2013-02-25 16:01:00,39.1,25.6,29.83,NW,322,3.2,4.6,58,0.00,CLR,SCT,0.00,WeatherDisplay:10.37,2013-02-25 21:01:00,
2013-02-25 16:06:00,39.2,25.6,29.83,NW,325,1.3,2.3,58,0.00,CLR,SCT,0.00,WeatherDisplay:10.37,2013-02-25 21:06:00,
2013-02-25 16:11:00,39.2,25.2,29.83,WNW,292,2.1,3.5,57,0.00,CLR,SCT,0.00,WeatherDisplay:10.37,2013-02-25 21:11:00,
2013-02-25 16:16:00,39.1,25.6,29.83,NW,316,1.0,2.3,58,0.00,CLR,SCT,0.00,WeatherDisplay:10.37,2013-02-25 21:16:00,
2013-02-25 16:21:00,39.0,25.9,29.84,NW,313,0.9,2.3,59,0.00,CLR,SCT,0.00,WeatherDisplay:10.37,2013-02-25 21:21:00,
2013-02-25 16:26:00,38.9,25.8,29.84,North,5,2.4,4.6,59,0.00,CLR,SCT,0.00,WeatherDisplay:10.37,2013-02-25 21:26:00,
2013-02-25 16:31:00,38.9,25.8,29.84,NW,311,1.7,2.3,59,0.00,CLR,SCT,0.00,WeatherDisplay:10.37,2013-02-25 21:31:00,
2013-02-25 16:36:00,38.7,25.6,29.84,NNW,330,3.4,6.0,59,0.00,CLR,SCT,0.00,WeatherDisplay:10.37,2013-02-25 21:36:00,
2013-02-25 16:41:00,38.5,25.8,29.84,NNW,343,3.3,3.5,60,0.00,CLR,SCT,0.00,WeatherDisplay:10.37,2013-02-25 21:41:00,
2013-02-25 16:46:00,38.3,26.0,29.84,NNW,344,1.7,3.5,61,0.00,CLR,SCT,0.00,WeatherDisplay:10.37,2013-02-25 21:46:00,
2013-02-25 16:51:00,38.1,26.2,29.84,NNW,344,1.1,2.0,62,0.00,CLR,SCT,0.00,WeatherDisplay:10.37,2013-02-25 21:51:00,
2013-02-25 16:56:00,38.0,25.7,29.84,WNW,288,0.7,3.0,61,0.00,CLR,SCT,0.00,WeatherDisplay:10.37,2013-02-25 21:56:00,
2013-02-25 17:01:00,37.9,25.2,29.84,NNW,346,0.6,1.1,60,0.00,CLR,SCT,0.00,WeatherDisplay:10.37,2013-02-25 22:01:00,
2013-02-25 17:06:00,37.9,25.6,29.84,North,350,2.6,2.6,61,0.00,CLR,SCT,0.00,WeatherDisplay:10.37,2013-02-25 22:06:00,
2013-02-25 17:11:00,37.8,25.9,29.84,North,350,0.0,2.3,62,0.00,CLR,SCT,0.00,WeatherDisplay:10.37,2013-02-25 22:11:00,
2013-02-25 17:16:00,37.7,25.8,29.84,NNW,348,0.4,2.3,62,0.00,CLR,SCT,0.00,WeatherDisplay:10.37,2013-02-25 22:16:00,
2013-02-25 17:21:00,37.6,26.1,29.84,NNW,348,2.7,3.5,63,0.00,CLR,SCT,0.00,WeatherDisplay:10.37,2013-02-25 22:21:00,
2013-02-25 17:26:00,37.5,25.7,29.84,NNW,337,0.1,1.1,62,0.00,CLR,SCT,0.00,WeatherDisplay:10.37,2013-02-25 22:26:00,
2013-02-25 17:31:00,37.4,25.6,29.84,NNW,337,0.5,1.1,62,0.00,CLR,SCT,0.00,WeatherDisplay:10.37,2013-02-25 22:31:00,
2013-02-25 17:36:00,37.4,25.2,29.84,NNW,337,0.9,3.5,61,0.00,CLR,SCT,0.00,WeatherDisplay:10.37,2013-02-25 22:36:00,
2013-02-25 17:41:00,37.3,25.8,29.85,NNW,337,0.0,0.0,63,0.00,CLR,SCT,0.00,WeatherDisplay:10.37,2013-02-25 22:41:00,
2013-02-25 17:46:00,37.2,25.8,29.85,NNW,337,0.0,1.1,63,0.00,CLR,SCT,0.00,WeatherDisplay:10.37,2013-02-25 22:46:00,
2013-02-25 17:51:00,37.1,25.7,29.85,NNW,337,0.6,1.1,63,0.00,CLR,SCT,0.00,WeatherDisplay:10.37,2013-02-25 22:51:00,
2013-02-25 17:56:00,37.0,25.6,29.86,NNW,337,0.0,0.0,63,0.00,CLR,SCT,0.00,WeatherDisplay:10.37,2013-02-25 22:56:00,
2013-02-25 18:01:00,36.9,25.5,29.86,NNW,337,0.0,0.0,63,0.00,CLR,SCT,0.00,WeatherDisplay:10.37,2013-02-25 23:01:00,
2013-02-25 18:06:00,36.7,25.7,29.87,NNW,337,0.7,2.3,64,0.00,CLR,SCT,0.00,WeatherDisplay:10.37,2013-02-25 23:06:00,
2013-02-25 18:11:00,36.6,25.6,29.87,NNW,338,0.1,1.1,64,0.00,CLR,SCT,0.00,WeatherDisplay:10.37,2013-02-25 23:11:00,
2013-02-25 18:16:00,36.6,25.6,29.88,NNW,338,0.5,2.3,64,0.00,CLR,SCT,0.00,WeatherDisplay:10.37,2013-02-25 23:16:00,
2013-02-25 18:21:00,36.6,25.9,29.88,NNW,338,0.2,1.1,65,0.00,CLR,SCT,0.00,WeatherDisplay:10.37,2013-02-25 23:21:00,
2013-02-25 18:26:00,36.5,25.5,29.88,North,5,1.7,3.5,64,0.00,CLR,SCT,0.00,WeatherDisplay:10.37,2013-02-25 23:26:00,
2013-02-25 18:31:00,36.5,25.5,29.89,NNW,346,2.1,4.6,64,0.00,CLR,SCT,0.00,WeatherDisplay:10.37,2013-02-25 23:31:00,
2013-02-25 18:36:00,36.5,25.5,29.89,North,355,1.9,4.0,64,0.00,CLR,SCT,0.00,WeatherDisplay:10.37,2013-02-25 23:36:00,
2013-02-25 18:41:00,36.4,25.7,29.89,NE,43,1.2,2.3,65,0.00,CLR,SCT,0.00,WeatherDisplay:10.37,2013-02-25 23:41:00,
2013-02-25 18:46:00,36.4,26.1,29.89,North,5,1.9,3.5,66,0.00,CLR,SCT,0.00,WeatherDisplay:10.37,2013-02-25 23:46:00,
2013-02-25 18:51:00,36.4,25.7,29.90,NNE,27,1.4,4.0,65,0.00,CLR,SCT,0.00,WeatherDisplay:10.37,2013-02-25 23:51:00,
2013-02-25 18:56:00,36.3,26.0,29.90,NE,53,1.8,3.5,66,0.00,CLR,SCT,0.00,WeatherDisplay:10.37,2013-02-25 23:56:00,
2013-02-25 19:01:00,36.2,25.9,29.89,NE,36,1.3,2.3,66,0.00,CLR,SCT,0.00,WeatherDisplay:10.37,2013-02-26 00:01:00,
2013-02-25 19:06:00,36.2,25.9,29.89,NE,40,0.5,2.3,66,0.00,CLR,SCT,0.00,WeatherDisplay:10.37,2013-02-26 00:06:00,
2013-02-25 19:11:00,36.1,25.8,29.89,NE,56,0.8,2.3,66,0.00,CLR,SCT,0.00,WeatherDisplay:10.37,2013-02-26 00:11:00,
2013-02-25 19:16:00,36.0,26.1,29.89,NE,56,0.4,2.3,67,0.00,CLR,SCT,0.00,WeatherDisplay:10.37,2013-02-26 00:16:00,
2013-02-25 19:21:00,35.9,26.4,29.89,ENE,61,0.2,2.3,68,0.00,CLR,SCT,0.00,WeatherDisplay:10.37,2013-02-26 00:21:00,
2013-02-25 19:26:00,35.7,26.2,29.89,ENE,61,0.1,1.1,68,0.00,CLR,SCT,0.00,WeatherDisplay:10.37,2013-02-26 00:26:00,
2013-02-25 19:31:00,35.6,26.4,29.89,ENE,61,0.3,2.0,69,0.00,CLR,SCT,0.00,WeatherDisplay:10.37,2013-02-26 00:31:00,
2013-02-25 19:36:00,35.5,25.6,29.89,NE,53,2.0,3.5,67,0.00,CLR,SCT,0.00,WeatherDisplay:10.37,2013-02-26 00:36:00,
2013-02-25 19:41:00,35.4,26.2,29.89,East,80,0.7,2.3,69,0.00,CLR,SCT,0.00,WeatherDisplay:10.37,2013-02-26 00:41:00,
2013-02-25 19:46:00,35.3,26.1,29.89,NNE,30,1.1,2.0,69,0.00,CLR,SCT,0.00,WeatherDisplay:10.37,2013-02-26 00:46:00,
2013-02-25 19:51:00,35.3,25.8,29.89,NE,40,0.9,1.1,68,0.00,CLR,SCT,0.00,WeatherDisplay:10.37,2013-02-26 00:51:00,
2013-02-25 19:56:00,35.2,25.3,29.90,NE,40,0.3,2.3,67,0.00,CLR,SCT,0.00,WeatherDisplay:10.37,2013-02-26 00:56:00,
2013-02-25 20:01:00,35.2,26.0,29.90,NE,40,0.0,0.0,69,0.00,CLR,SCT,0.00,WeatherDisplay:10.37,2013-02-26 01:01:00,
2013-02-25 20:06:00,35.0,25.9,29.90,NE,40,0.0,0.0,69,0.00,CLR,SCT,0.00,WeatherDisplay:10.37,2013-02-26 01:06:00,
2013-02-25 20:11:00,34.7,25.6,29.90,NE,40,0.0,1.1,69,0.00,CLR,SCT,0.00,WeatherDisplay:10.37,2013-02-26 01:11:00,
2013-02-25 20:16:00,34.5,25.7,29.90,NE,40,0.1,1.1,70,0.00,CLR,SCT,0.00,WeatherDisplay:10.37,2013-02-26 01:16:00,
2013-02-25 20:21:00,34.3,26.2,29.90,NE,41,0.3,1.1,72,0.00,CLR,SCT,0.00,WeatherDisplay:10.37,2013-02-26 01:21:00,
2013-02-25 20:26:00,33.9,26.2,29.90,NE,41,0.0,2.3,73,0.00,CLR,SCT,0.00,WeatherDisplay:10.37,2013-02-26 01:26:00,
2013-02-25 20:31:00,33.7,25.6,29.90,NE,42,1.1,1.1,72,0.00,CLR,SCT,0.00,WeatherDisplay:10.37,2013-02-26 01:31:00,
2013-02-25 20:36:00,33.4,25.7,29.90,NE,42,0.6,2.3,73,0.00,CLR,SCT,0.00,WeatherDisplay:10.37,2013-02-26 01:36:00,
2013-02-25 20:41:00,33.2,25.8,29.90,NE,50,0.7,1.1,74,0.00,CLR,SCT,0.00,WeatherDisplay:10.37,2013-02-26 01:41:00,
2013-02-25 20:46:00,32.9,25.8,29.90,NE,52,0.9,2.0,75,0.00,CLR,SCT,0.00,WeatherDisplay:10.37,2013-02-26 01:46:00,
2013-02-25 20:51:00,32.9,25.5,29.90,ENE,74,0.5,2.3,74,0.00,CLR,SCT,0.00,WeatherDisplay:10.37,2013-02-26 01:51:00,
2013-02-25 20:56:00,32.8,25.7,29.90,ENE,74,0.5,1.1,75,0.00,CLR,SCT,0.00,WeatherDisplay:10.37,2013-02-26 01:56:00,
2013-02-25 21:01:00,32.7,25.0,29.90,ENE,74,0.5,2.3,73,0.00,CLR,SCT,0.00,WeatherDisplay:10.37,2013-02-26 02:01:00,
2013-02-25 21:06:00,32.7,25.3,29.90,ENE,61,1.0,2.0,74,0.00,CLR,SCT,0.00,WeatherDisplay:10.37,2013-02-26 02:06:00,
2013-02-25 21:11:00,32.9,24.9,29.90,ENE,70,1.1,2.3,72,0.00,CLR,SCT,0.00,WeatherDisplay:10.37,2013-02-26 02:11:00,
2013-02-25 21:16:00,32.9,24.9,29.90,ENE,71,1.2,2.3,72,0.00,CLR,SCT,0.00,WeatherDisplay:10.37,2013-02-26 02:16:00,
2013-02-25 21:21:00,33.0,25.0,29.90,ENE,71,0.8,1.1,72,0.00,CLR,SCT,0.00,WeatherDisplay:10.37,2013-02-26 02:21:00,
2013-02-25 21:26:00,32.9,24.5,29.90,ENE,71,0.4,1.1,71,0.00,CLR,SCT,0.00,WeatherDisplay:10.37,2013-02-26 02:26:00,
2013-02-25 21:31:00,32.9,24.5,29.91,ENE,71,0.7,1.1,71,0.00,CLR,SCT,0.00,WeatherDisplay:10.37,2013-02-26 02:31:00,
2013-02-25 21:36:00,32.8,24.8,29.91,ENE,71,0.4,1.1,72,0.00,CLR,SCT,0.00,WeatherDisplay:10.37,2013-02-26 02:36:00,
2013-02-25 21:41:00,32.5,24.5,29.91,ENE,71,0.6,1.1,72,0.00,CLR,SCT,0.00,WeatherDisplay:10.37,2013-02-26 02:41:00,
2013-02-25 21:46:00,32.3,24.3,29.91,ENE,71,0.0,0.0,72,0.00,CLR,SCT,0.00,WeatherDisplay:10.37,2013-02-26 02:46:00,
2013-02-25 21:51:00,32.2,24.2,29.91,ENE,71,0.0,0.0,72,0.00,CLR,SCT,0.00,WeatherDisplay:10.37,2013-02-26 02:51:00,
2013-02-25 21:56:00,32.3,24.3,29.91,ENE,71,0.0,0.0,72,0.00,CLR,SCT,0.00,WeatherDisplay:10.37,2013-02-26 02:56:00,
2013-02-25 22:01:00,32.3,23.9,29.92,ENE,71,0.0,0.0,71,0.00,CLR,SCT,0.00,WeatherDisplay:10.37,2013-02-26 03:01:00,
2013-02-25 22:06:00,32.2,23.8,29.92,ENE,71,0.0,0.0,71,0.00,CLR,SCT,0.00,WeatherDisplay:10.37,2013-02-26 03:06:00,
2013-02-25 22:11:00,32.2,24.2,29.92,ENE,71,0.0,0.0,72,0.00,CLR,SCT,0.00,WeatherDisplay:10.37,2013-02-26 03:11:00,
2013-02-25 22:16:00,32.3,24.3,29.92,ENE,71,0.0,0.0,72,0.00,CLR,SCT,0.00,WeatherDisplay:10.37,2013-02-26 03:16:00,
2013-02-25 22:21:00,32.4,24.4,29.92,ENE,71,0.0,0.0,72,0.00,CLR,SCT,0.00,WeatherDisplay:10.37,2013-02-26 03:21:00,
2013-02-25 22:26:00,32.4,24.4,29.92,ENE,71,0.0,0.0,72,0.00,CLR,SCT,0.00,WeatherDisplay:10.37,2013-02-26 03:26:00,
2013-02-25 22:31:00,32.4,24.4,29.92,ENE,71,0.0,0.0,72,0.00,CLR,SCT,0.00,WeatherDisplay:10.37,2013-02-26 03:31:00,
2013-02-25 22:36:00,32.5,24.5,29.92,ENE,71,0.0,0.0,72,0.00,CLR,SCT,0.00,WeatherDisplay:10.37,2013-02-26 03:36:00,
2013-02-25 22:41:00,32.8,24.8,29.92,ENE,71,0.0,0.0,72,0.00,CLR,SCT,0.00,WeatherDisplay:10.37,2013-02-26 03:41:00,
2013-02-25 22:46:00,32.9,24.9,29.92,ENE,71,0.0,0.0,72,0.00,CLR,SCT,0.00,WeatherDisplay:10.37,2013-02-26 03:46:00,
2013-02-25 22:51:00,33.0,25.0,29.92,ENE,71,0.0,0.0,72,0.00,CLR,SCT,0.00,WeatherDisplay:10.37,2013-02-26 03:51:00,
2013-02-25 22:56:00,32.8,24.8,29.92,ENE,71,1.0,1.1,72,0.00,CLR,SCT,0.00,WeatherDisplay:10.37,2013-02-26 03:56:00,
2013-02-25 23:01:00,32.5,25.1,29.92,ENE,71,0.0,0.0,74,0.00,CLR,SCT,0.00,WeatherDisplay:10.37,2013-02-26 04:01:00,
2013-02-25 23:06:00,32.4,24.4,29.92,ENE,71,0.0,0.0,72,0.00,CLR,SCT,0.00,WeatherDisplay:10.37,2013-02-26 04:06:00,
2013-02-25 23:11:00,32.4,24.7,29.92,ENE,71,0.0,0.0,73,0.00,CLR,SCT,0.00,WeatherDisplay:10.37,2013-02-26 04:11:00,
2013-02-25 23:16:00,32.5,24.8,29.92,ENE,71,0.0,0.0,73,0.00,CLR,SCT,0.00,WeatherDisplay:10.37,2013-02-26 04:16:00,
2013-02-25 23:21:00,32.6,24.9,29.92,ENE,71,0.0,1.0,73,0.00,CLR,SCT,0.00,WeatherDisplay:10.37,2013-02-26 04:21:00,
2013-02-25 23:26:00,32.8,25.1,29.92,ENE,71,0.0,1.1,73,0.00,CLR,SCT,0.00,WeatherDisplay:10.37,2013-02-26 04:26:00,
2013-02-25 23:31:00,32.8,24.8,29.92,ENE,71,0.0,0.0,72,0.00,CLR,SCT,0.00,WeatherDisplay:10.37,2013-02-26 04:31:00,
2013-02-25 23:36:00,32.8,24.8,29.92,ENE,71,0.0,0.0,72,0.00,CLR,SCT,0.00,WeatherDisplay:10.37,2013-02-26 04:36:00,
2013-02-25 23:41:00,32.8,24.8,29.92,ENE,71,0.0,0.0,72,0.00,CLR,SCT,0.00,WeatherDisplay:10.37,2013-02-26 04:41:00,
2013-02-25 23:46:00,32.9,24.9,29.92,ENE,71,0.0,0.0,72,0.00,CLR,SCT,0.00,WeatherDisplay:10.37,2013-02-26 04:46:00,
2013-02-25 23:51:00,33.0,25.0,29.92,ENE,71,0.0,0.0,72,0.00,CLR,SCT,0.00,WeatherDisplay:10.37,2013-02-26 04:51:00,
2013-02-25 23:56:00,33.0,25.0,29.92,ENE,71,0.0,0.0,72,0.00,CLR,SCT,0.00,WeatherDisplay:10.37,2013-02-26 04:56:00,